STARLINK-3095, 49160

Orbit data source: Space-Track

STARLINK-3095, 49160 is a payload satellite owned by SpaceX/Seattle (US) in LEO that was launched on Tue, 14 Sep 2021 UTC via an FALCON 9 launch vehicle from the Air Force Western Test Range (AFWTR). Payload-class satellites include a variety of spacecraft equipped with specific instruments for various scientific and technological missions. These include communications satellites like Starlink; space stations such as the ISS; scientific satellites like the Hubble; Earth observation satellites from companies like Planet Labs, Umbra, and HawkEye 360; GPS; miniature CubeSats for education and research; and military/defense satellites.

Loading next visibility...
Identifier
49160, 2021-082AG
Orbit
LEO
Country
Flag of USUS
Related business
Manufacturer
SpaceX/Seattle
Mission
Operational Commercial Communications
Bus & Motor
STARLINK, Unknown motor
Mass
297 kg wet, ~275 kg dry
Launch date (UTC)
2021-09-14 (5 years ago)
Launch vehicle
FALCON 9
Launch site
Air Force Western Test Range (AFWTR)
Object type
Payload
Rocket body
Debris
Shape & HBR
Box + 1 Pan, 10.1 m
Radar Cross Section
13.562 m², Large (>1 m²)

Expand to show TLE details & history
Last TLE update: 13 hours ago

TLE from 13 hours ago
0 STARLINK-3095
1 49160U 21082AG  26125.42237617  .00000405  00000-0  41757-4 0  9998
2 49160  69.9989 151.3957 0003780 267.1345  92.9382 14.98331859255544
Epoch: 2026-05-05T10:08Z
TLE epoch observation values (Epoch: 2026-05-05T10:08:13.301Z)
Latitude
0.00005°
Longitude
136.04285°
Altitude
574.61 km
Speed
7.574 km/s
True Right ascension
10h 05m 34s
True Declination
0° 00' 00"
Sunlit
Object was in daylight at epoch
Visualization orbit readout
Latitude
Unknown
Longitude
Unknown
Altitude
Unknown
Speed
Unknown
Apparent Right ascension
Unknown
Apparent Declination
Unknown
Sunlit
N/A
Visualization observer readout
Local Sidereal Time
07:14:29
Azimuth
Unknown
Elevation
Unknown
Doppler factor
Unknown
Orbital elements
Apogee altitude
572.625 km
Perigee altitude
567.372 km
Semi-major axis
6,948.135 km
Eccentricity
0.00038
Inclination
69.9989°
RAAN
151.3957°
Arg. of periapsis
267.1345°
True anomaly
92.98146°
Mean anomaly
92.9382°
Eccentric anomaly
92.95983°
Mean motion
3.74749 °/min
Orbital period
96.06 mins
BSTAR
0.000041757
Loading maneuver chart data...
Computing Atmospheric mass density...
Loading historical data...
Loading historical data...
Loading historical data...
Loading historical data...
Loading historical data...
Loading historical data...
Loading historical data...

Documentation

Showing up to 5 results
|